Tracking 19176 objects as of 27-May-2018
HD Live streaming from Space Station
objects crossing your sky now

TRANSAT

Track TRANSAT now!
10-day predictions
TRANSAT is classified as:


NORAD ID: 10457
Int'l Code: 1977-106A
Perigee: 1,066.5 km
Apogee: 1,102.6 km
Inclination: 89.8 °
Period: 106.8 minutes
Semi major axis: 7455 km
RCS: 1.7788 m2 (large)
Launch date: October 28, 1977
Source: United States (US)
Launch site: AIR FORCE WESTERN TEST RANGE (AFWTR)
aabbcc
Your satellite tracking list
Your tracking list is empty




NASA's NSSDC Master Catalog

Two Line Element Set (TLE):
1 10457U 77106A   18147.14100602  .00000060  00000-0  80423-4 0  9990
2 10457  89.7518 163.7696 0024209 216.3951 212.7061 13.48588299996098
Source of the keplerian elements: AFSPC